Weather History for Pian Rosa, Italy

Change the Weather History Date:

Wednesday, October 2, 2013

  Actual Average Record
Temperature  
Mean Temperature 29 °F -  
Max Temperature 32 °F 29 °F 41 °F (2011)
Min Temperature 26 °F 21 °F 14 °F (1996)
Degree Days  
Heating Degree Days 36    
Moisture  
Dew Point 13 °F    
Average Humidity 51    
Maximum Humidity 69    
Minimum Humidity 18    
Precipitation  
Precipitation 0.00 in - - ()
Sea Level Pressure  
Sea Level Pressure 30.23 in    
Wind  
Wind Speed 16 mph ()    
Max Wind Speed 26 mph    
Max Gust Speed -    
Visibility 8.0 miles    
Events      
Averages and records for this station are not official NWS values.
T = Trace of Precipitation, MM = Missing Value Source: Averaged Metar Reports

Daily Weather History Graph

Daily Weather History Graph

Search for Another Location

Airport:

Trip Planner

Search our weather history database for the weather conditions in past years. The results will help you decide how hot, cold, wet, or windy it might be!

Date:

Astronomy

Oct. 02, 2013 Rise Set
Actual Time 7:28 AM CEST 7:07 PM CEST
Civil Twilight 6:59 AM CEST 7:37 PM CEST
Nautical Twilight 6:24 AM CEST 8:11 PM CEST
Astronomical Twilight 5:49 AM CEST 8:46 PM CEST
Moon 4:38 AM CEST (10/2) 5:39 PM CEST (10/2)
Length of Visible Light 12h 38m
Length of Day
11h 38m
Waning Crescent, 7% of the Moon is Illuminated
Oct 2
Waning Crescent
Oct 5
New
Oct 12
First Quarter
Oct 19
Full
Oct 27
Last Quarter

Hourly Weather History & Observations

Time (CEST) Temp. Windchill Dew Point Humidity Pressure Visibility Wind Dir Wind Speed Gust Speed Precip Events Conditions
12:55 AM 28.4 °F 14.7 °F 8.6 °F 43% 30.12 in - NE 21.9 mph - N/A   Clear
1:55 AM 28.4 °F 13.8 °F 5.0 °F 37% 30.12 in - NE 25.3 mph - N/A   Clear
2:55 AM 26.6 °F 11.4 °F 1.4 °F 34% 30.12 in - NE 25.3 mph - N/A   Clear
3:55 AM 26.6 °F 11.1 °F 3.2 °F 37% 30.12 in - NE 26.5 mph - N/A   Clear
4:55 AM 26.6 °F 11.1 °F 1.4 °F 34% 30.12 in - NE 26.5 mph - N/A   Clear
5:00 AM 27 °F - 1 °F 18%  in 6 mi NE 26.5 mph - -  
5:55 AM 26.6 °F 12.7 °F 1.4 °F 34% 30.15 in - NE 20.7 mph - N/A   Clear
6:55 AM 26.6 °F 13.4 °F 1.4 °F 34% 30.15 in 6.2 mi NE 18.4 mph - N/A   Scattered Clouds
7:55 AM 26.6 °F 13.1 °F 5.0 °F 40% 30.15 in 6.2 mi NNE 19.6 mph - N/A   Scattered Clouds
8:55 AM 26.6 °F 12.4 °F 10.4 °F 51% 30.18 in 6.2 mi NNE 21.9 mph - N/A   Scattered Clouds
9:55 AM 26.6 °F 15.2 °F 14.0 °F 59% 30.18 in 6.2 mi NNE 13.8 mph - N/A   Scattered Clouds
10:55 AM 26.6 °F 12.4 °F 17.6 °F 69% 30.21 in 6.2 mi NE 21.9 mph - N/A   Scattered Clouds
11:00 AM 27 °F - 17 °F 54%  in 12 mi NE 21.9 mph - -   Partly Cloudy
11:55 AM 28.4 °F 18.0 °F 17.6 °F 64% 30.21 in 6.2 mi NE 12.7 mph - N/A   Scattered Clouds
12:55 PM 28.4 °F 17.5 °F 17.6 °F 64% 30.24 in 6.2 mi NE 13.8 mph - N/A   Partly Cloudy
1:55 PM 30.2 °F 26.7 °F 15.8 °F 55% 30.24 in 6.2 mi NW 3.5 mph - N/A   Partly Cloudy
2:00 PM 30 °F - 16 °F 42%  in 19 mi NW 3.5 mph - -   Scattered Clouds
2:55 PM 32.0 °F - 17.6 °F 55% 30.27 in 6.2 mi SSE 2.3 mph - N/A   Scattered Clouds
3:55 PM 32.0 °F 28.7 °F 19.4 °F 60% 30.27 in 6.2 mi ESE 3.5 mph - N/A   Scattered Clouds
4:55 PM 32.0 °F 27.5 °F 19.4 °F 60% 30.30 in 6.2 mi East 4.6 mph - N/A   Scattered Clouds
5:00 PM 32 °F - 20 °F 48%  in 19 mi East 4.6 mph - -   Partly Cloudy
5:55 PM 30.2 °F 22.6 °F 17.6 °F 60% 30.30 in 6.2 mi NNE 8.1 mph - N/A   Partly Cloudy
6:55 PM 28.4 °F 18.5 °F 19.4 °F 69% 30.30 in 6.2 mi NE 11.5 mph - N/A   Partly Cloudy
7:55 PM 28.4 °F 19.1 °F 19.4 °F 69% 30.30 in 6.2 mi NE 10.4 mph - N/A   Partly Cloudy
8:00 PM 29 °F - 20 °F 57%  in 19 mi NE 10.4 mph - -   Scattered Clouds
8:55 PM 28.4 °F 18.5 °F 19.4 °F 69% 30.33 in 6.2 mi ENE 11.5 mph - N/A   Partly Cloudy
9:55 PM 28.4 °F 19.1 °F 14.0 °F 55% 30.33 in 6.2 mi ENE 10.4 mph - N/A   Partly Cloudy
10:55 PM 30.2 °F 19.3 °F 15.8 °F 55% 30.36 in 6.2 mi ENE 15.0 mph - N/A   Partly Cloudy
11:00 PM 30 °F - 16 °F 42%  in 6 mi ENE 15.0 mph - -   Scattered Clouds
11:55 PM 30.2 °F 24.3 °F 19.4 °F 64% 30.36 in 6.2 mi North 5.8 mph - N/A   Partly Cloudy